Marion, IN

6:33 PM EDT on September 26, 2016 (GMT -0400)
Marion Municipal

Weather History for KMZZ - May, 2013

Change the Weather History Date:

Thursday, May 16, 2013

  Actual Average (KMIE) Record (KMIE)
Temperature  
Mean Temperature 70 °F 62 °F  
Max Temperature 79 °F 72 °F 90 °F (1977)
Min Temperature 60 °F 52 °F 35 °F (1984)
Degree Days  
Heating Degree Days 0 5  
Month to date heating degree days 112  
Since 1 July heating degree days 5704  
Cooling Degree Days 4 2  
Month to date cooling degree days 22  
Year to date cooling degree days 37  
Growing Degree Days 20 (Base 50)    
Moisture  
Dew Point 51 °F    
Average Humidity 55    
Maximum Humidity 93    
Minimum Humidity 24    
Precipitation  
Precipitation 0.00 in 0.15 in 1.08 in (2001)
Month to date precipitation 2.12  
Year to date precipitation 13.28  
Sea Level Pressure  
Sea Level Pressure 29.91 in    
Wind  
Wind Speed 5 mph (ESE)    
Max Wind Speed 17 mph    
Max Gust Speed -    
Visibility 9 miles    
Events      
T = Trace of Precipitation, MM = Missing Value Source: NWS Daily Summary

Daily Weather History Graph

Daily Weather History Graph

Search for Another Location

Airport or City:

Trip Planner

Search our weather history database for the weather conditions in past years. The results will help you decide how hot, cold, wet, or windy it might be!

Date:

Astronomy

May. 16, 2013 Rise Set
Actual Time 6:25 AM EDT 8:53 PM EDT
Civil Twilight 5:54 AM EDT 9:24 PM EDT
Nautical Twilight 5:15 AM EDT 10:03 PM EDT
Astronomical Twilight 4:32 AM EDT 10:46 PM EDT
Moon 11:58 AM EDT (5/16) 1:13 AM EDT (5/16)
Length of Visible Light 15h 30m
Length of Day
14h 28m
Waxing Crescent, 35% of the Moon is Illuminated
May 16
Waxing Crescent
May 18
First Quarter
May 25
Full
May 31
Last Quarter
Jun 8
New

Hourly Weather History & Observations

Time (EDT) Temp. Dew Point Humidity Pressure Visibility Wind Dir Wind Speed Gust Speed Precip Events Conditions
12:15 AM 70.3 °F 56.3 °F 61% 29.83 in 10.0 mi West 3.5 mph - N/A   Overcast
12:55 AM 69.3 °F 55.9 °F 62% 29.84 in 10.0 mi SW 5.8 mph - N/A   Overcast
1:15 AM 68.9 °F 56.7 °F 65% 29.83 in 7.0 mi WSW 6.9 mph - N/A   Overcast
1:35 AM 70.3 °F 57.6 °F 64% 29.85 in 7.0 mi West 12.7 mph - N/A   Overcast
1:55 AM 70.9 °F 59.9 °F 68% 29.84 in 10.0 mi WSW 17.3 mph - N/A   Mostly Cloudy
2:15 AM 70.0 °F 61.2 °F 73% 29.84 in 7.0 mi WSW 10.4 mph - N/A   Scattered Clouds
2:35 AM 69.3 °F 59.5 °F 71% 29.86 in 10.0 mi North 3.5 mph - N/A   Mostly Cloudy
2:55 AM 69.1 °F 59.2 °F 71% 29.86 in 7.0 mi Calm Calm - N/A   Mostly Cloudy
3:15 AM 68.2 °F 59.9 °F 75% 29.86 in 10.0 mi Calm Calm - N/A   Mostly Cloudy
3:35 AM 67.3 °F 60.1 °F 78% 29.85 in 10.0 mi Calm Calm - N/A   Overcast
3:55 AM 66.2 °F 60.6 °F 82% 29.86 in 7.0 mi Calm Calm - N/A   Overcast
4:15 AM 65.7 °F 60.4 °F 83% 29.85 in 10.0 mi Calm Calm - N/A   Scattered Clouds
4:35 AM 64.2 °F 60.6 °F 88% 29.85 in 10.0 mi Calm Calm - N/A   Clear
4:55 AM 63.5 °F 60.4 °F 90% 29.84 in 7.0 mi SSE 3.5 mph - N/A   Clear
5:15 AM 62.6 °F 59.7 °F 90% 29.86 in 5.0 mi Calm Calm - N/A   Clear
5:35 AM 62.4 °F 59.7 °F 91% 29.86 in 7.0 mi Calm Calm - N/A   Clear
5:55 AM 61.9 °F 59.5 °F 92% 29.86 in 5.0 mi NE 4.6 mph - N/A   Clear
6:15 AM 61.0 °F 58.8 °F 93% 29.88 in 5.0 mi NNE 6.9 mph - N/A   Clear
6:35 AM 60.8 °F 58.8 °F 93% 29.88 in 5.0 mi Calm Calm - N/A   Clear
7:15 AM 60.4 °F 58.1 °F 92% 29.90 in 7.0 mi ENE 5.8 mph - N/A   Clear
7:35 AM 61.0 °F 56.8 °F 86% 29.90 in 10.0 mi East 5.8 mph - N/A   Scattered Clouds
7:55 AM 61.9 °F 55.2 °F 79% 29.91 in 7.0 mi ENE 4.6 mph - N/A   Scattered Clouds
8:15 AM 63.0 °F 55.6 °F 77% 29.91 in 5.0 mi ENE 4.6 mph - N/A   Haze
8:35 AM 64.9 °F 54.1 °F 68% 29.91 in 7.0 mi East 5.8 mph - N/A   Scattered Clouds
8:55 AM 66.9 °F 52.2 °F 59% 29.92 in 10.0 mi East 5.8 mph - N/A   Mostly Cloudy
9:15 AM 67.6 °F 50.7 °F 55% 29.92 in 10.0 mi ESE 6.9 mph - N/A   Scattered Clouds
9:35 AM 68.4 °F 48.9 °F 50% 29.93 in 10.0 mi SE 5.8 mph - N/A   Mostly Cloudy
9:55 AM 68.9 °F 50.5 °F 52% 29.93 in 10.0 mi SSE 6.9 mph - N/A   Mostly Cloudy
10:15 AM 69.8 °F 51.1 °F 51% 29.94 in 7.0 mi SSE 5.8 mph - N/A   Scattered Clouds
10:35 AM 69.6 °F 52.0 °F 53% 29.94 in 10.0 mi ESE 4.6 mph - N/A   Mostly Cloudy
10:55 AM 69.8 °F 50.7 °F 51% 29.94 in 10.0 mi East 3.5 mph - N/A   Overcast
11:15 AM 69.8 °F 51.3 °F 52% 29.93 in 10.0 mi East 6.9 mph - N/A   Overcast
11:35 AM 70.5 °F 50.5 °F 49% 29.94 in 10.0 mi Calm Calm - N/A   Mostly Cloudy
11:55 AM 72.0 °F 49.8 °F 46% 29.93 in 10.0 mi ENE 6.9 mph - N/A   Mostly Cloudy
12:15 PM 72.3 °F 48.4 °F 43% 29.94 in 10.0 mi Calm Calm - N/A   Scattered Clouds
12:35 PM 73.0 °F 47.8 °F 41% 29.95 in 10.0 mi South 3.5 mph - N/A   Clear
12:55 PM 72.3 °F 52.2 °F 49% 29.95 in 10.0 mi SSW 8.1 mph - N/A   Clear
1:15 PM 72.7 °F 53.4 °F 51% 29.96 in 7.0 mi SSW 8.1 mph - N/A   Scattered Clouds
1:35 PM 73.8 °F 51.6 °F 46% 29.96 in 10.0 mi SSW 9.2 mph - N/A   Scattered Clouds
1:55 PM 74.8 °F 49.1 °F 40% 29.96 in 7.0 mi SSW 5.8 mph - N/A   Mostly Cloudy
2:15 PM 74.5 °F 48.6 °F 40% 29.96 in 10.0 mi South 5.8 mph - N/A   Overcast
2:35 PM 74.5 °F 46.8 °F 37% 29.95 in 7.0 mi SSW 3.5 mph - N/A   Overcast
3:15 PM 76.5 °F 45.7 °F 33% 29.95 in 7.0 mi SSW 3.5 mph - N/A   Scattered Clouds
3:35 PM 76.5 °F 45.1 °F 33% 29.95 in 7.0 mi Calm Calm - N/A   Scattered Clouds
3:55 PM 76.8 °F 45.7 °F 33% 29.94 in 10.0 mi SW 3.5 mph - N/A   Scattered Clouds
4:15 PM 77.2 °F 42.1 °F 29% 29.94 in 10.0 mi Calm Calm - N/A   Scattered Clouds
4:35 PM 78.3 °F 42.6 °F 28% 29.94 in 10.0 mi WSW 3.5 mph - N/A   Scattered Clouds
4:55 PM 78.8 °F 40.6 °F 26% 29.93 in 7.0 mi West 6.9 mph - N/A   Scattered Clouds
5:15 PM 79.2 °F 39.6 °F 24% 29.93 in 10.0 mi Calm Calm - N/A   Clear
5:35 PM 78.6 °F 40.1 °F 25% 29.92 in 7.0 mi WSW 3.5 mph - N/A   Clear
6:15 PM 79.0 °F 41.9 °F 27% 29.92 in 10.0 mi NE 6.9 mph - N/A   Clear
6:35 PM 78.8 °F 42.6 °F 28% 29.92 in 7.0 mi ENE 5.8 mph - N/A   Clear
6:55 PM 78.1 °F 42.6 °F 28% 29.92 in 10.0 mi ENE 5.8 mph - N/A   Clear
7:15 PM 78.1 °F 42.3 °F 28% 29.92 in 7.0 mi NE 4.6 mph - N/A   Clear
7:35 PM 77.0 °F 43.9 °F 31% 29.92 in 7.0 mi East 4.6 mph - N/A   Clear
7:55 PM 75.7 °F 44.6 °F 33% 29.93 in 10.0 mi East 4.6 mph - N/A   Clear
8:15 PM 75.0 °F 45.5 °F 35% 29.93 in 7.0 mi ENE 4.6 mph - N/A   Clear
8:35 PM 73.8 °F 46.0 °F 37% 29.94 in 10.0 mi ENE 3.5 mph - N/A   Clear
8:55 PM 72.9 °F 44.4 °F 36% 29.94 in 10.0 mi Calm Calm - N/A   Clear
9:15 PM 70.3 °F 46.9 °F 43% 29.95 in 10.0 mi NE 3.5 mph - N/A   Clear
9:35 PM 67.5 °F 48.6 °F 51% 29.95 in 10.0 mi Calm Calm - N/A   Clear
9:55 PM 66.4 °F 48.9 °F 53% 29.96 in 10.0 mi East 3.5 mph - N/A   Clear
10:15 PM 65.7 °F 48.9 °F 55% 29.96 in 10.0 mi East 3.5 mph - N/A   Scattered Clouds
10:35 PM 65.1 °F 48.7 °F 55% 29.96 in 10.0 mi Calm Calm - N/A   Clear
10:55 PM 64.9 °F 48.7 °F 56% 29.97 in 10.0 mi ESE 4.6 mph - N/A   Clear
11:15 PM 62.8 °F 49.8 °F 63% 29.98 in 10.0 mi Calm Calm - N/A   Clear
11:35 PM 63.0 °F 48.7 °F 60% 29.98 in 10.0 mi ESE 3.5 mph - N/A   Clear
11:55 PM 61.7 °F 49.8 °F 65% 29.98 in 10.0 mi SE 4.6 mph - N/A   Clear